Home   Weather   Camrose   Past weeks

Flag for Canada Past Weather in Camrose, Alberta, Canada — Yesterday and Last 2 Weeks

Now
48 °F

Passing clouds.


Feels Like: 46 °F
Forecast: 54 / 73 °F
Wind: 5 mph from Southwest

Location: Edmonton International

Current Time: Jul 28, 2017 at 5:11:56 am

Latest Report: Jul 28, 2017 at 4:00 am


Visibility: 15 mi

Pressure: 29.98 "Hg (27.39 "Hg at 744m altitude)

Humidity: 94%

Dew Point: 46 °F

Location of CamroseLocation

Past Weather in Camrose — Graph

°F

Camrose Temperature Yesterday

Maximum temperature yesterday: 81 °F (at 3:00 pm)
Minimum temperature yesterday: 50 °F (at 4:00 am)
Average temperature yesterday: 65 °F

High & Low Weather Summary for the Past Weeks

 TemperatureHumidityPressure
High82 °F (Jul 13, 4:00 pm)100% (Jul 19, 6:00 am)30.19 "Hg (Jul 19, 6:00 am)
Low43 °F (Jul 18, 2:00 am)38% (Jul 18, 5:00 pm)29.69 "Hg (Jul 16, 3:31 am)
Average60 °F77%29.95 "Hg
* Reported Jul 13 4:00 am — Jul 28 4:00 am, Camrose. Weather by CustomWeather, © 2017

Note: Actual official high and low records may vary slightly from our data, if they occured in-between our weather recording intervals... More about our weather records

Advertising

Camrose Weather History for the Previous 24 Hours

Scroll right to see more
 ConditionsComfort  
Time TempWeatherWind HumidityBarometerVisibility
4:00 am
Fri, Jul 28
48 °FPassing clouds.5 mph94%29.98 "Hg15 mi
3:00 am50 °FClear.7 mph100%29.96 "Hg15 mi
2:00 am54 °FPassing clouds.3 mph94%29.96 "Hg15 mi
1:00 am54 °FPassing clouds.6 mph94%29.93 "Hg15 mi
12:00 am57 °FPartly cloudy.7 mph88%29.95 "Hg15 mi
11:56 pm
Thu, Jul 27
57 °FPartly cloudy.6 mph88%29.96 "Hg15 mi
11:20 pm57 °FSprinkles. Partly cloudy.5 mph94%29.96 "Hg15 mi
11:00 pm57 °FThunderstorms. Mostly cloudy.8 mph94%29.92 "Hg15 mi
10:00 pm57 °FThunderstorms. Partly cloudy.15 mph88%29.94 "Hg15 mi
9:40 pm57 °FThunderstorms. Mostly cloudy.23 mph88%29.94 "Hg12 mi
9:22 pm59 °FThunderstorms. Low clouds.35 mph82%29.93 "Hg4 mi
8:00 pm70 °FThunderstorms. Mostly cloudy.16 mph88%29.87 "Hg15 mi
7:24 pm73 °FThunderstorms. Cloudy.10 mph74%29.83 "Hg15 mi
7:00 pm75 °FSprinkles. Partly sunny.9 mph69%29.82 "Hg15 mi
6:54 pm77 °FSprinkles. Broken clouds.7 mph69%29.82 "Hg15 mi
6:00 pm79 °FBroken clouds.7 mph61%29.82 "Hg15 mi
5:00 pm81 °FPartly sunny.3 mph51%29.83 "Hg15 mi
4:00 pm81 °FPartly sunny.6 mph58%29.84 "Hg15 mi
3:00 pm81 °FPartly sunny.5 mph54%29.84 "Hg15 mi
2:00 pm77 °FPartly sunny.5 mph61%29.86 "Hg15 mi
1:00 pm75 °FPartly sunny.5 mph65%29.87 "Hg15 mi
12:00 pm73 °FPartly sunny.6 mph61%29.88 "Hg15 mi
11:00 am72 °FPartly sunny.3 mph69%29.88 "Hg15 mi
10:00 am68 °FPartly sunny.2 mph73%29.88 "Hg15 mi
9:00 am64 °FPartly sunny.3 mph78%29.90 "Hg15 mi
8:00 am59 °FBroken clouds.3 mph88%29.89 "Hg15 mi
7:00 am54 °FScattered clouds.5 mph94%29.89 "Hg15 mi
6:00 am50 °FFog.6 mph94%29.90 "Hg15 mi
5:00 am50 °FPassing clouds.3 mph94%29.91 "Hg15 mi
Weather by CustomWeather, © 2017

See weather overviewHow to use our weather pages